Location: Melbourne
(37.8170°S, 144.9670°E)
Time: 12:26:31
(UTC+10:00)

Daily predictions for brighter satellites

Satellite Brightness Start Highest point End
(mag) Time Altitude Azimuth Time Altitude Azimuth Time Altitude Azimuth
ATLAS 2A CENTAUR R/B 3.9 18:07:07 10° N 18:09:27 14° NE 18:13:11 10° ENE
Cosmos 1437 4.3 18:14:49 10° NE 18:17:03 17° E 18:19:19 10° SE
Sich 1 Rocket 4.3 18:12:46 10° SSW 18:17:14 60° W 18:21:36 10° N
Cosmos 1633 2.8 18:14:40 10° S 18:18:12 46° E 18:21:42 10° NNE
Cosmos 2333 Rocket 3.7 18:17:05 10° S 18:20:55 18° SE 18:24:43 10° E
Cosmos 1331 Rocket 4.4 18:17:12 10° S 18:22:05 39° ESE 18:26:54 10° NE
Cosmos 1346 4.3 18:23:06 10° NE 18:25:07 19° E 18:27:09 10° SE
CSL-04 Rocket 3.7 18:21:44 10° SSE 18:27:09 81° ENE 18:32:34 10° NNW
ATLAS CENTAUR Rocket 3.3 18:26:17 10° WNW 18:29:41 28° N 18:34:12 10° ENE
COSMOS 2441 4.4 18:24:42 10° SSE 18:29:41 86° ENE 18:34:37 10° NNW
Cosmos 2251 Rocket 3.8 18:24:47 10° N 18:29:53 47° ENE 18:35:06 10° SSE
Cosmos 1340 2.9 18:26:28 10° NNW 18:30:17 75° W 18:34:10 10° S
Cosmos 2237 Rocket 3.8 18:31:05 10° SSE 18:34:15 15° SE 18:36:38 12° ESE
Milstar 3 Cent rocket 3.8 18:30:01 10° WNW 18:34:31 25° NNW 18:38:22 10° NE
Cosmos 1602 4.1 18:30:52 10° S 18:34:42 44° E 18:38:28 10° NNE
CSL-04 Debris 4.2 18:29:21 10° SSE 18:34:53 84° ENE 18:40:18 10° NNW
IDEFIX/ARIANE 42P 3.7 18:31:00 10° S 18:36:04 47° WSW 18:41:03 10° NW
AQUARIUS 4.1 18:33:10 10° SSE 18:37:45 73° ENE 18:42:15 10° N
NOSS 3-4 (A) 3.7 18:33:16 10° SSW 18:40:25 79° ESE 18:47:00 10° NE
NOSS 3-4 (C) 3.7 18:33:23 10° SSW 18:40:31 78° ESE 18:47:06 10° NE
Meteor 1-27 Rocket 3.8 18:34:58 10° N 18:40:31 61° E 18:46:15 10° SSE
Cosmos 1867 4.1 18:35:36 10° NW 18:40:56 62° WSW 18:46:20 10° SSE
Okean 2 Rocket 3.4 18:38:37 10° S 18:43:06 74° W 18:47:34 10° N
IRS-1A Rocket 4.3 18:37:24 10° SSE 18:43:10 63° ENE 18:48:43 10° N
Cosmos 2227 Rocket 3.4 18:40:19 10° NE 18:44:18 20° E 18:47:25 13° ESE
USA 234 4.2 18:42:11 10° SE 18:48:24 45° SW 18:54:35 10° WNW
CZ-4 R/B 1.4 18:46:37 10° S 18:50:40 86° WSW 18:54:34 10° NNW
SPOT 3 Rocket 4.0 18:46:06 10° SSE 18:51:01 38° E 18:55:52 10° NNE
Cosmos 2084 Rocket 4.1 18:50:32 10° SSW 18:55:17 45° SE 18:58:54 16° ENE
Cosmos 1428 Rocket 4.5 18:50:04 10° S 18:56:29 82° E 19:02:49 10° N
CZ-2C R/B 4.2 18:52:06 10° S 18:56:39 35° WSW 19:01:16 10° NW
Cosmos 2026 Rocket 4.3 18:50:36 10° SSW 18:56:47 71° W 19:03:01 10° N
Cosmos 2279 Rocket 4.1 18:50:47 10° N 18:57:00 84° W 19:03:19 10° S
APEX 3.8 19:01:14 10° N 19:04:44 41° ENE 19:08:10 15° SE
SeaSat 1 3.7 19:01:30 10° N 19:06:12 44° WNW 19:10:59 10° SW
Shenzhou-11 Module 1.9 19:04:56 10° WSW 19:08:03 87° NNW 19:09:00 42° ENE
Tiangong 2 1.1 19:06:36 10° WSW 19:09:52 68° SSE 19:10:41 45° E
GPS 2-04 Rocket1 3.0 19:11:15 10° W 19:15:30 64° N 19:17:01 36° ENE
Cosmos 1300 Rocket 3.4 19:13:20 10° S 19:17:47 71° E 19:22:08 10° NNE
Okean 1 Rocket 3.2 19:15:12 10° S 19:19:29 47° E 19:21:43 25° NE
ALOS 2.6 19:18:42 10° SSE 19:23:12 41° E 19:27:37 10° NNE
Helios 1B rocket 3.7 19:24:52 25° SSE 19:24:52 25° SSE 19:27:10 10° S
Meteor 1-11 Rocket 4.4 19:22:50 10° SSW 19:28:48 61° W 19:34:39 10° N
Cosmos 2219 Rocket 2.1 19:24:32 10° SSW 19:30:16 73° ESE 19:34:18 20° NNE
Cosmos 2219 3.9 19:25:16 10° NW 19:30:48 54° WSW 19:36:23 10° SSE
Aureole 2 Rocket 2.9 19:27:17 10° S 19:31:20 54° ESE 19:31:20 54° ESE
Cosmos 1536 2.9 19:28:00 10° S 19:32:09 78° W 19:36:15 10° N
Cosmos 2297 Rocket 2.5 19:27:44 10° N 19:33:02 42° ENE 19:33:31 42° E
YAOGAN 1 4.0 19:32:04 10° S 19:36:10 39° WSW 19:40:13 10° NW
NOSS 2-2 (D) 4.2 19:36:03 10° SSW 19:42:59 83° ESE 19:44:55 42° NE
Cosmos 1302 Rocket 4.4 19:37:52 10° SSW 19:43:10 66° WNW 19:48:25 10° N
Cosmos 405 Rocket 3.4 19:39:43 10° N 19:42:34 44° N 19:42:34 44° N
SL-16 R/B 3.8 19:39:55 10° S 19:42:27 19° SSE 19:42:27 19° SSE
Okean 3 4.0 19:45:03 10° NNW 19:49:20 59° W 19:53:40 10° S
Cosmos 1378 Rocket 3.8 19:45:23 10° NNW 19:49:43 69° W 19:54:06 10° S
COSMOS 2428 3.9 19:47:18 10° SW 19:52:43 43° WNW 19:58:05 10° N
NOSS 2-2 (C) 4.4 19:56:43 10° SW 20:03:25 68° WNW 20:04:51 48° N
Cosmos 2333 Rocket 2.4 19:59:58 10° SSW 20:05:45 70° WNW 20:07:48 41° N
RESURS DK-1 4.2 20:02:59 10° SSW 20:04:44 24° SSW 20:04:44 24° SSW
H-2A R/B 4.0 19:41:54 10° W 20:07:23 43° NNW 20:09:22 34° NNE
CZ-4C R/B 4.4 20:08:41 10° N 20:11:11 20° NNE 20:11:11 20° NNE
Cosmos 2237 Rocket 2.3 20:13:18 10° SSW 20:18:31 73° SW 20:18:31 73° SW
Meteor 1-18 Rocket 4.5 20:18:27 10° NNW 20:24:16 70° W 20:30:03 10° S
Cosmos 1980 4.0 20:20:12 10° SSW 20:25:37 65° W 20:25:37 65° W
Cosmos 2082 4.0 20:20:38 10° NNW 20:26:00 65° W 20:26:00 65° W
Cosmos 2227 Rocket 2.9 20:22:21 10° NW 20:27:52 52° WSW 20:29:24 41° SSW
Cosmos 2297 Rocket 4.3 21:12:32 10° WNW 21:15:28 22° W 21:15:28 22° W
ATLAS 2A CENTAUR R/B 4.4 21:18:21 10° WNW 21:23:04 42° NNW 21:23:04 42° NNW
